Location: Brusselsch Zeekanaal
(50.8667°N, 4.3667°E)
Time: 02:45:21
(UTC+00:00)

USA 234 - Pass Details

Date: 08 November 2025
Orbit: 1100 x 1107 km, 123.0° (Epoch: 02 December)

Event Time Altitude Azimuth Distance (km) Brightness Sun altitude
Rises 03:49:27 0° 137° (SE) 3,918 6.6 -28.0°
Reaches altitude 10° 03:51:59 10° 141° (SE) 2,961 5.9 -27.6°
Maximum altitude 03:58:24 57° 219° (SW) 1,279 3.3 -26.6°
Enters shadow 03:58:53 56° 237° (WSW) 1,294 3.2 -26.6°
